sat.trackr.live / text

‹ back to catalog

STARLINK-30830

NORAD 58194 · 2023-167V

PAYLOAD ACTIVE UNKNOWN

§ Identity

Operator
Country
US
Launch date
2023-10-30
Launch site
AFETR
Launch vehicle
Mass (kg)
RCS (m²)

Purposes: comms

External: N2YO · Heavens-Above · Gunter

§ Orbital elements

Epoch: 2026-09-20T23:07:49.574208Z

Period
94.27 min
Inclination
43.0007°
Eccentricity
0.0001129
Mean motion
15.27580015 rev/d
Perigee alt
482.3 km
Apogee alt
483.8 km
Semi-major
6,861.2 km
B*
2.0999e-5
RAAN
120.2403°
Arg perigee
277.4527°
Mean anomaly
82.6197°
Rev number
16,085

§ Raw data

STARLINK-308301 58194U 23167V   26263.96376822  .00000316  00000+0  20999-4 0  99902 58194  43.0007 120.2403 0001129 277.4527  82.6197 15.27580015160859

JSON: /api/v1/satellites/58194 · /tle

For live sub-satellite position, see the globe view (requires WebGL).

§ Visibility from observer

Set your observer location to see the next 7 days of passes ≥ 10°. The values pass through the URL so the page stays shareable.

No JS? Fill the form by hand. The geolocation button needs JavaScript.